Regional Weather Roundup
Issued by NWS

Home | Current Version | Previous Version | Text Only | Print | Product List | Glossary Off
Versions: 1 2 3 4 5 6 7 8 9 10 11 12 13 14 15 16 17 18 19 20 21 22 23 24 25 26 27

000
ASUS45 KPSR 220910
RWRAZ

ARIZONA HOURLY REGIONAL WEATHER ROUNDUP
NATIONAL WEATHER SERVICE PHOENIX AZ
200 AM MST FRI SEP 22 2017

NOTE: FAIR INDICATES FEW OR NO CLOUDS BELOW 12,000 FEET WITH NO
SIGNIFICANT WEATHER AND/OR OBSTRUCTIONS TO VISIBILITY.

AZZ001>003-036-221000-
NORTHWEST ARIZONA

CITY           SKY/WX    TMP DP  RH WIND       PRES   REMARKS
BULLHEAD CITY  CLEAR     72  19  14 NE10      29.69S
KINGMAN        CLEAR     55  38  52 CALM      29.79S
$$

AZZ004>008-015-016-018-221000-
NORTH CENTRAL ARIZONA

CITY           SKY/WX    TMP DP  RH WIND       PRES   REMARKS
GRAND CANYON   CLOUDY    52  34  50 W7        29.90S
WILLIAMS       PTCLDY    54  36  50 S21G29    29.90F
PRESCOTT       CLEAR     59  39  47 S10       29.86S
FLAGSTAFF      CLEAR     51  35  54 SW14      29.93R
PAYSON           N/A     61  30  31 S6        29.91S
PAGE           PTCLDY    69  29  22 SW9G17    29.74R
$$

AZZ009>014-017-221000-
NORTHEAST ARIZONA

CITY           SKY/WX    TMP DP  RH WIND       PRES   REMARKS
WINSLOW        CLEAR     54  32  43 CALM      29.85F
SAINT JOHNS    PTCLDY    59  36  42 CALM      29.93S
WINDOW ROCK    CLOUDY    58  35  42 CALM      29.98S
SHOW LOW       CLEAR     59  34  38 S15       29.97F
$$

AZZ540-542>544-546-548-221000-
GREATER PHOENIX AREA

CITY           SKY/WX    TMP DP  RH WIND       PRES   REMARKS
PHOENIX        PTCLDY    79  49  34 SW5       29.69S
BUCKEYE        CLEAR     73  46  38 SW12      29.71S
LUKE AFB       CLEAR     75  49  38 SW12      29.69R
DEER VALLEY    CLEAR     76  47  35 S6        29.71S
SCOTTSDALE     PTCLDY    77  43  29 W5        29.74R
MESA-GATEWAY   CLEAR     75  34  22 S5        29.73F
$$

AZZ539-553-221000-
SOUTHWEST MARICOPA COUNTY AND PINAL COUNTY

CITY           SKY/WX    TMP DP  RH WIND       PRES   REMARKS
CASA GRANDE    NOT AVBL
GILA BEND      FAIR      73  47  39 CALM      29.69S
$$

AZZ503-504-507>509-221000-
SOUTHEAST ARIZONA

CITY           SKY/WX    TMP DP  RH WIND       PRES   REMARKS
TUCSON         CLOUDY    76  46  34 S3        29.83S
DAVIS-MONTHAN  CLOUDY    73  47  39 SW5       29.82S
NOGALES        CLEAR     65  34  31 W5        29.90F
SIERRA VISTA   CLEAR     68  38  33 SE15      29.94F
DOUGLAS        CLEAR     60  41  49 E3        29.93S
SAFFORD        CLEAR     68  38  33 CALM      29.81R
$$

AZZ532-221000-
SOUTHWEST ARIZONA

CITY           SKY/WX    TMP DP  RH WIND       PRES   REMARKS
YUMA           CLEAR     70  40  33 NW9G20    29.72R
$$

CAZ041-043-047-048-061-525>527-560>570-221000-
SOUTHERN CALIFORNIA

CITY           SKY/WX    TMP DP  RH WIND       PRES   REMARKS
DOWNTOWN L.A.  FAIR      63  53  70 E3        29.83S
L.A. AIRPORT   FAIR      61  54  77 E8        29.84R
SAN DIEGO      PTCLDY    64  52  64 E3        29.87S
BURBANK        FAIR      59  51  75 CALM      29.84R
ONTARIO        PTCLDY    58  50  75 VRB3      29.85S
RIVERSIDE      CLEAR     56  50  80 E5        29.85S
PALM SPRINGS   CLEAR     67  45  45 CALM      29.75R
EL CENTRO NAS  CLEAR     67  39  35 W18       29.74S
IMPERIAL       CLEAR     66  42  41 W12       29.72R
BLYTHE         CLEAR     69  50  50 CALM      29.71R
NEEDLES        CLEAR     73  29  19 W6        29.71R
$$

NVZ020-UTZ003-221000-
SOUTHERN NEVADA-UTAH

CITY           SKY/WX    TMP DP  RH WIND       PRES   REMARKS
LAS VEGAS      CLEAR     64  33  31 NW8       29.76S
SALT LAKE CITY CLOUDY    43  39  86 E3        29.83F
$$

NMZ009-TXZ055-221000-
NEW MEXICO-WEST TEXAS

CITY           SKY/WX    TMP DP  RH WIND       PRES   REMARKS
ALBUQUERQUE    CLOUDY    66  37  34 S7        29.94S
EL PASO        PTCLDY    79  47  32 SW8       29.89S
$$


........................KEY........................
SKY/WX - SKY CONDITION/WEATHER
TMP    - TEMPERATURE IN FAHRENHEIT
DP     - DEW POINT IN FAHRENHEIT
RH     - RELATIVE HUMIDITY IN PERCENT
WIND   - DIRECTION AND SPEED IN MILES PER HOUR (MPH)
VRB    - VARIABLE WIND DIRECTION
PRES   - MEAN SEA LEVEL PRESSURE IN INCHES OF MERCURY
         F - FALLING PRESSURE   R - RISING PRESSURE
         S - STEADY PRESSURE
VSB    - VISIBILITY IN MILES
HX     - HEAT INDEX IN FAHRENHEIT
WCI    - WIND CHILL INDEX IN FAHRENHEIT
TC     - TEMPERATURE IN CELSIUS WHICH IS ALSO KNOWN AS
         TEMPERATURE IN CENTIGRADE
AFB    - AIR FORCE BASE
         LUKE AFB IS LUKE AIR FORCE BASE
         DAVIS-MONTHAN IS DAVIS-MONTHAN AIR FORCE BASE
NAS    - NAVAL AIR STATION
         EL CENTRO NAS IS EL CENTRO NAVAL AIR STATION
N/A    - NOT AVAILABLE





USA.gov is the U.S. government's official web portal to all federal, state and local government web resources and services.